Stündliche Wetter Homenki

Heute, 21 Juni, Montag

Zeit Temperatur Niederschläge Wind Luftdruck Luftfeuchtigkeit
00:00 +20°C° 0 mm 2 m/S 749 mmHg 84%
01:00 +19°C° 0 mm 2 m/S 749 mmHg 86%
02:00 +19°C° 0 mm 2 m/S 749 mmHg 87%
03:00 +19°C° 0 mm 2 m/S 749 mmHg 87%
04:00 +19°C° 0 mm 2 m/S 749 mmHg 87%
05:00 +19°C° 0 mm 2 m/S 749 mmHg 88%
06:00 +21°C° 0 mm 3 m/S 749 mmHg 83%
07:00 +22°C° 0 mm 4 m/S 749 mmHg 77%
08:00 +23°C° 0 mm 4 m/S 749 mmHg 72%
09:00 +26°C° 0 mm 4 m/S 749 mmHg 68%
10:00 +27°C° 0 mm 5 m/S 749 mmHg 64%
11:00 +28°C° 0 mm 5 m/S 749 mmHg 60%
12:00 +29°C° 0 mm 5 m/S 748 mmHg 58%
13:00 +29°C° 0 mm 5 m/S 748 mmHg 57%
14:00 +32°C° 0 mm 6 m/S 748 mmHg 57%
15:00 +30°C° 0 mm 5 m/S 748 mmHg 61%
16:00 +30°C° 0 mm 5 m/S 747 mmHg 64%
17:00 +29°C° 0 mm 4 m/S 747 mmHg 68%
18:00 +28°C° 0 mm 4 m/S 747 mmHg 73%
19:00 +27°C° 0 mm 4 m/S 748 mmHg 78%
20:00 +25°C° 0 mm 4 m/S 748 mmHg 83%
21:00 +23°C° 0 mm 4 m/S 748 mmHg 85%
22:00 +22°C° 0 mm 4 m/S 748 mmHg 87%
23:00 +22°C° 0 mm 4 m/S 748 mmHg 90%

Morgen, 22 Juni, Dienstag

Zeit Temperatur Niederschläge Wind Luftdruck Luftfeuchtigkeit
00:00 +21°C° 0 mm 3 m/S 748 mmHg 91%
01:00 +20°C° 0 mm 3 m/S 748 mmHg 93%
02:00 +20°C° 0 mm 3 m/S 748 mmHg 95%
03:00 +20°C° 0 mm 3 m/S 748 mmHg 94%
04:00 +20°C° 0 mm 3 m/S 748 mmHg 94%
05:00 +20°C° 0 mm 3 m/S 748 mmHg 93%
06:00 +21°C° 0 mm 4 m/S 748 mmHg 86%
07:00 +23°C° 0 mm 4 m/S 748 mmHg 79%
08:00 +25°C° 0 mm 5 m/S 748 mmHg 71%
09:00 +27°C° 0 mm 5 m/S 748 mmHg 65%
10:00 +28°C° 0 mm 5 m/S 748 mmHg 59%
11:00 +30°C° 0 mm 5 m/S 748 mmHg 53%
12:00 +30°C° 0 mm 5 m/S 748 mmHg 52%
13:00 +32°C° 0 mm 4 m/S 748 mmHg 50%
14:00 +33°C° 0 mm 4 m/S 748 mmHg 48%
15:00 +32°C° 0 mm 4 m/S 748 mmHg 52%
16:00 +32°C° 0 mm 4 m/S 748 mmHg 56%
17:00 +30°C° 0 mm 4 m/S 748 mmHg 60%
18:00 +29°C° 0 mm 4 m/S 748 mmHg 67%
19:00 +27°C° 0 mm 3 m/S 748 mmHg 73%
20:00 +25°C° 0 mm 3 m/S 748 mmHg 80%
21:00 +24°C° 0 mm 3 m/S 748 mmHg 84%
22:00 +22°C° 0 mm 3 m/S 749 mmHg 87%
23:00 +21°C° 0 mm 3 m/S 749 mmHg 91%

übermorgen, 23 Juni, Mittwoch

Zeit Temperatur Niederschläge Wind Luftdruck Luftfeuchtigkeit
00:00 +20°C° 0 mm 3 m/S 749 mmHg 91%
01:00 +20°C° 0 mm 2 m/S 749 mmHg 92%
02:00 +19°C° 0 mm 2 m/S 749 mmHg 92%
03:00 +20°C° 0 mm 2 m/S 749 mmHg 92%
04:00 +20°C° 0 mm 2 m/S 749 mmHg 92%
05:00 +20°C° 0 mm 2 m/S 749 mmHg 91%
06:00 +22°C° 0 mm 3 m/S 749 mmHg 85%
07:00 +25°C° 0 mm 3 m/S 750 mmHg 80%
08:00 +27°C° 0 mm 3 m/S 750 mmHg 74%
09:00 +28°C° 0 mm 4 m/S 750 mmHg 68%
10:00 +30°C° 0 mm 4 m/S 750 mmHg 63%
11:00 +32°C° 0 mm 4 m/S 750 mmHg 58%
12:00 +33°C° 0 mm 4 m/S 750 mmHg 55%
13:00 +33°C° 0 mm 4 m/S 750 mmHg 52%
14:00 +34°C° 0 mm 4 m/S 750 mmHg 49%
15:00 +33°C° 0 mm 4 m/S 749 mmHg 52%
16:00 +33°C° 0 mm 4 m/S 749 mmHg 56%
17:00 +33°C° 0 mm 3 m/S 749 mmHg 59%
18:00 +30°C° 0 mm 3 m/S 749 mmHg 65%
19:00 +28°C° 0 mm 3 m/S 749 mmHg 70%
20:00 +26°C° 0 mm 2 m/S 749 mmHg 75%
21:00 +25°C° 0 mm 2 m/S 750 mmHg 79%
22:00 +24°C° 0 mm 3 m/S 750 mmHg 82%
23:00 +22°C° 0 mm 3 m/S 750 mmHg 85%

24 Juni, Donnerstag

Zeit Temperatur Niederschläge Wind Luftdruck Luftfeuchtigkeit
00:00 +22°C° 0 mm 3 m/S 750 mmHg 87%
01:00 +23°C° 0 mm 2 m/S 750 mmHg 89%
02:00 +21°C° 0 mm 2 m/S 750 mmHg 91%
03:00 +21°C° 0 mm 2 m/S 750 mmHg 91%
04:00 +21°C° 0 mm 2 m/S 750 mmHg 92%
05:00 +21°C° 0 mm 2 m/S 750 mmHg 92%
06:00 +24°C° 0 mm 2 m/S 750 mmHg 86%
07:00 +26°C° 0 mm 3 m/S 750 mmHg 81%
08:00 +28°C° 0 mm 3 m/S 750 mmHg 75%
09:00 +29°C° 0 mm 3 m/S 750 mmHg 69%
10:00 +30°C° 0 mm 3 m/S 750 mmHg 62%
11:00 +33°C° 0 mm 4 m/S 750 mmHg 56%
12:00 +33°C° 0 mm 3 m/S 749 mmHg 52%
13:00 +34°C° 0 mm 3 m/S 749 mmHg 49%
14:00 +34°C° 0 mm 3 m/S 749 mmHg 46%
15:00 +34°C° 0 mm 3 m/S 749 mmHg 50%
16:00 +34°C° 0 mm 3 m/S 749 mmHg 54%
17:00 +33°C° 0 mm 3 m/S 749 mmHg 57%
18:00 +30°C° 0 mm 3 m/S 748 mmHg 63%
19:00 +29°C° 0 mm 2 m/S 748 mmHg 70%
20:00 +27°C° 0 mm 2 m/S 747 mmHg 76%
21:00 +26°C° 0.2 mm 2 m/S 748 mmHg 79%
22:00 +25°C° 0.2 mm 2 m/S 748 mmHg 83%
23:00 +24°C° 0.2 mm 3 m/S 748 mmHg 86%

25 Juni, Freitag

Zeit Temperatur Niederschläge Wind Luftdruck Luftfeuchtigkeit
00:00 +23°C° 0.5 mm 2 m/S 748 mmHg 87%
01:00 +23°C° 0.5 mm 2 m/S 748 mmHg 88%
02:00 +21°C° 0.5 mm 2 m/S 748 mmHg 90%
03:00 +21°C° 0.1 mm 2 m/S 748 mmHg 90%
04:00 +21°C° 0.1 mm 2 m/S 748 mmHg 90%
05:00 +21°C° 0.1 mm 2 m/S 748 mmHg 89%
06:00 +24°C° 0 mm 2 m/S 748 mmHg 85%
07:00 +25°C° 0 mm 3 m/S 748 mmHg 80%
08:00 +26°C° 0 mm 3 m/S 748 mmHg 76%
09:00 +28°C° 0 mm 3 m/S 748 mmHg 70%
10:00 +29°C° 0 mm 3 m/S 748 mmHg 65%
11:00 +30°C° 0 mm 3 m/S 748 mmHg 60%
12:00 +31°C° 0 mm 3 m/S 748 mmHg 57%
13:00 +33°C° 0 mm 3 m/S 748 mmHg 55%
14:00 +33°C° 0 mm 3 m/S 747 mmHg 52%
15:00 +33°C° 0 mm 3 m/S 747 mmHg 55%
16:00 +31°C° 0 mm 3 m/S 747 mmHg 57%
17:00 +31°C° 0 mm 3 m/S 746 mmHg 59%
18:00 +29°C° 0 mm 3 m/S 746 mmHg 65%
19:00 +27°C° 0 mm 2 m/S 746 mmHg 70%
20:00 +26°C° 0 mm 2 m/S 746 mmHg 75%
21:00 +24°C° 1 mm 2 m/S 746 mmHg 80%
22:00 +23°C° 1 mm 2 m/S 746 mmHg 85%
23:00 +20°C° 1 mm 2 m/S 746 mmHg 90%

26 Juni, Samstag

Zeit Temperatur Niederschläge Wind Luftdruck Luftfeuchtigkeit
00:00 +20°C° 0.1 mm 2 m/S 746 mmHg 89%
01:00 +20°C° 0.1 mm 2 m/S 746 mmHg 89%
02:00 +20°C° 0.1 mm 2 m/S 746 mmHg 89%
03:00 +20°C° 0 mm 2 m/S 746 mmHg 89%
04:00 +21°C° 0 mm 1 m/S 746 mmHg 89%
05:00 +22°C° 0 mm 1 m/S 746 mmHg 89%
06:00 +23°C° 0 mm 1 m/S 746 mmHg 84%
07:00 +22°C° 0 mm 0 m/S 746 mmHg 79%
08:00 +24°C° 0 mm 0 m/S 746 mmHg 75%
09:00 +27°C° 0 mm 1 m/S 746 mmHg 70%
10:00 +28°C° 0 mm 1 m/S 746 mmHg 66%
11:00 +29°C° 0 mm 1 m/S 747 mmHg 62%
12:00 +30°C° 0.5 mm 2 m/S 747 mmHg 61%
13:00 +30°C° 0.5 mm 2 m/S 747 mmHg 61%
14:00 +30°C° 0.5 mm 2 m/S 747 mmHg 60%
15:00 +28°C° 0.6 mm 3 m/S 746 mmHg 67%
16:00 +26°C° 0.6 mm 3 m/S 746 mmHg 74%
17:00 +24°C° 0.6 mm 3 m/S 746 mmHg 81%
18:00 +23°C° 0.1 mm 2 m/S 746 mmHg 82%
19:00 +23°C° 0.1 mm 2 m/S 746 mmHg 83%
20:00 +22°C° 0.1 mm 1 m/S 746 mmHg 84%
21:00 +22°C° 0.1 mm 1 m/S 746 mmHg 86%
22:00 +21°C° 0.1 mm 1 m/S 746 mmHg 87%
23:00 +21°C° 0.1 mm 1 m/S 746 mmHg 89%
Mehr zeigen

Wir brauchen deine Erlaubnis

Meteoprog und unser Service Anbieter werden persönliche Daten aufbewahren, so wie Cookies, Geräte Bezeichnung oder ähnliche Technologien von deinem Gerät und Prozess, so wie Persönliche Daten Inhalte und Werbungen, genauso wie social Media und den Verkehr zu analysieren.

  • Aufbewahrung und/oder Zugang zu deiner Geräte Informationen.

    Cookies, Geräte Bezeichnung oder andere Informationen, können aufbewahrt oder Zugang zu deinem Gerät erhalten, für den Grund, der oben angegeben wird.

  • Personalisierte Werbung und Inhalte, Messungen, Einblick in das Publikum und Produkt Entwicklung.

    Werbungen und Inhalte können personalisiert werden, basierend auf ein Profil. Mehr Daten können besser personalisierte Werbungen und Inhalte hinzufügen. Werbung und Inhalte können gezeigt und gemessen werden. Einblicke über das Publikum, welche die Werbung gesehen haben und den Inhalt, können abgeleitet werden. So wie Daten können genutzt werden, um es zu verbessern oder die Benutzer Erfahrung zu verbessern das System und die Software.

Wenn du “Ich stimme zu” klickst, erlaubst du uns, die Cookies zu benutzen die Geräte Bezeichnung, den Web oder ähnliche Technologien zu benutzen. Deine Settings, können in deinem Gerät bei deinem Browser geändert werden.

Für den bestimmten Zweck, berechtigten Interessen beruhen darauf, mehr als auf den Inhalt. Du kannst mehr darüber in unseren Privaten und Cookie Politik lesen.